Location: Monroe
(41.9160°N, 83.3980°W)
Time: 02:39:23
(UTC-04:00)

Amateur Radio Satellites - All Passes

Search period start: 21 August 2017 02:09
Search period end: 22 August 2017 02:09
Location: Monroe, 41.9160°N, 83.3980°W

Satellite Date Start Highest point End Downlink Frequencies (MHz)
Time Altitude Azimuth
YUBILEINY 21 Aug 02:14:02 02:19:35 18° 60° (ENE) 02:25:05 435.215
DUCHIFAT 1 21 Aug 02:20:13 02:24:03 36° 289° (WNW) 02:27:53 145.980
BUGSAT 1 21 Aug 02:20:18 02:24:16 59° 100° (E) 02:28:15 437.445
VELOX 1 21 Aug 02:21:46 02:25:03 20° 267° (W) 02:28:20 145.980
DX 1 21 Aug 02:22:08 02:26:28 63° 258° (WSW) 02:30:50 434.975-435.025
BEESAT 21 Aug 02:31:06 02:33:23 14° 60° (ENE) 02:35:41 436.000
SPROUT 21 Aug 02:31:32 02:33:17 12° 270° (W) 02:35:03 437.525
NO-84 21 Aug 02:51:52 02:54:40 47° 322° (NW) 02:57:25 435.350 FM
ITUPSAT 1 21 Aug 03:03:28 03:07:26 27° 66° (ENE) 03:11:23 437.325
NANOSAT C BR1 21 Aug 03:07:17 03:08:40 11° 298° (WNW) 03:10:04 145.865
Gurwin Techsat 1B 21 Aug 03:12:34 03:17:48 54° 101° (E) 03:22:59 435.225
UKube-1 21 Aug 03:38:42 03:41:13 15° 268° (W) 03:43:43 .
Oscar 19 21 Aug 03:38:47 03:43:54 57° 288° (WNW) 03:48:59 437.125/150
MOZHAYETS 4 21 Aug 03:49:27 03:53:55 62° 74° (ENE) 03:58:26
BUGSAT 1 21 Aug 03:57:38 03:59:08 12° 297° (WNW) 04:00:38 437.445
BEESAT 21 Aug 04:05:49 04:10:33 73° 257° (WSW) 04:15:18 436.000
YUBILEINY 21 Aug 04:09:03 04:17:49 84° 82° (E) 04:26:31 435.215
CUBESAT XI-V 21 Aug 04:10:30 04:14:03 22° 66° (ENE) 04:17:39 437.345
ITUPSAT 1 21 Aug 04:40:50 04:45:06 33° 263° (W) 04:49:25 437.325
AO-7 21 Aug 04:49:34 04:57:41 53° 102° (ESE) 05:05:43 .
Gurwin Techsat 1B 21 Aug 04:53:27 04:57:19 21° 297° (WNW) 05:01:11 435.225
ITAMSAT 1 21 Aug 04:58:22 05:03:29 57° 101° (E) 05:08:32 435.822/435.867
BEESAT 3 21 Aug 05:12:54 05:15:51 20° 112° (ESE) 05:18:51 437.485
MOZHAYETS 4 21 Aug 05:29:25 05:31:29 13° 270° (W) 05:33:33
KKS-1 21 Aug 05:36:29 05:40:57 79° 76° (ENE) 05:45:26 437.445
CUBESAT XI-V 21 Aug 05:46:49 05:51:09 39° 262° (W) 05:55:34 437.345
YUBILEINY 21 Aug 06:07:44 06:13:26 20° 282° (WNW) 06:19:08 435.215
DOVE 4 21 Aug 06:08:15 06:11:40 21° 92° (E) 06:14:56 437.250
STARS 21 Aug 06:14:37 06:19:02 83° 73° (ENE) 06:23:27 437.465
STRAND 1 21 Aug 06:28:21 06:28:31 10° 57° (ENE) 06:28:41 437.568
ITAMSAT 1 21 Aug 06:38:54 06:42:29 19° 298° (WNW) 06:46:03 435.822/435.867
AO-7 21 Aug 06:42:45 06:50:10 38° 301° (WNW) 06:57:33 .
AO-85 21 Aug 06:44:53 06:48:48 68° 305° (NW) 06:52:42 145.980
LilacSat-2 21 Aug 06:46:11 06:48:46 17° 93° (E) 06:51:21 437.200
BEESAT 3 21 Aug 06:49:26 06:53:11 38° 309° (NW) 06:56:59 437.485
XW-2D 21 Aug 06:50:02 06:52:44 18° 93° (E) 06:55:26 145.860 - 145.880
NUDT-PHONESAT 21 Aug 06:55:59 06:58:07 15° 92° (E) 07:00:16 437.300
XW-2B 21 Aug 07:00:46 07:03:52 23° 95° (E) 07:06:59 145.730 - 145.750
BEESAT 2 21 Aug 07:03:14 07:07:14 80° 304° (NW) 07:11:18 435.950
CUTE-I 21 Aug 07:08:57 07:13:27 27° 95° (E) 07:17:56 437.470
XW-2C 21 Aug 07:19:27 07:23:05 39° 98° (E) 07:26:42 145.795 - 145.815
XW-2F 21 Aug 07:31:20 07:35:06 52° 100° (E) 07:38:49 145.980 - 146.000
DOVE 4 21 Aug 07:45:20 07:49:30 35° 290° (WNW) 07:53:26 437.250
NO-84 21 Aug 07:47:46 07:49:47 16° 27° (NNE) 07:51:52 435.350 FM
KAITUO 1B 21 Aug 07:56:04 07:59:53 86° 102° (ESE) 08:03:40 145.475/437.950
CUTE 1.7 + AOD 2 21 Aug 07:58:33 08:01:48 21° 93° (E) 08:05:03 437.475
STRAND 1 21 Aug 08:01:42 08:06:47 75° 74° (ENE) 08:11:54 437.568
HO-68 21 Aug 08:02:26 08:08:39 31° 95° (E) 08:14:50 435.675
PCSat 21 Aug 08:03:43 08:08:51 40° 53° (NE) 08:13:56 145.827
SO-50 21 Aug 08:05:34 08:09:47 35° 49° (NE) 08:14:00 436.795
CUBEBUG 2 21 Aug 08:12:41 08:15:11 15° 92° (E) 08:17:40 437.445
LilacSat-2 21 Aug 08:19:37 08:23:08 34° 289° (WNW) 08:26:39 437.200
XW-2D 21 Aug 08:23:33 08:26:58 31° 289° (WNW) 08:30:24 145.860 - 145.880
NUDT-PHONESAT 21 Aug 08:28:40 08:32:09 37° 288° (WNW) 08:35:38 437.300
XW-2B 21 Aug 08:34:49 08:37:59 25° 291° (WNW) 08:41:08 145.730 - 145.750
BEESAT 2 21 Aug 08:44:12 08:45:40 12° 323° (NW) 08:47:08 435.950
SEEDS 21 Aug 08:45:14 08:49:18 42° 98° (E) 08:53:19 437.485
ZACube-1 21 Aug 08:45:15 08:46:21 11° 90° (E) 08:47:27 437.345
CUTE-I 21 Aug 08:48:40 08:53:34 38° 292° (WNW) 08:58:26 437.470
FO-29 21 Aug 08:53:57 09:00:11 30° 64° (ENE) 09:05:56 435.910
XW-2C 21 Aug 08:54:38 08:56:56 15° 294° (WNW) 08:59:15 145.795 - 145.815
AO-73 21 Aug 09:04:48 09:07:34 17° 92° (E) 09:10:21 145.935
XW-2F 21 Aug 09:07:13 09:08:45 12° 296° (WNW) 09:10:17 145.980 - 146.000
TIGRISAT 21 Aug 09:21:09 09:22:30 11° 62° (ENE) 09:23:50 435.000
NO-84 21 Aug 09:24:23 09:27:24 67° 225° (SW) 09:30:41 435.350 FM
XW-2A 21 Aug 09:25:29 09:28:52 68° 284° (WNW) 09:32:15 145.665 - 145.685
AAUSAT CUBESAT 2 21 Aug 09:29:43 09:33:53 60° 101° (E) 09:37:59 437.432
CUTE 1.7 + AOD 2 21 Aug 09:33:48 09:37:42 34° 289° (WNW) 09:41:35 437.475
UWE-3 21 Aug 09:39:46 09:44:02 83° 105° (ESE) 09:48:23 435.000/436.395/437.385
nSIGHT-1 21 Aug 09:42:22 09:43:05 11° 129° (SE) 09:43:49 .
STRAND 1 21 Aug 09:44:14 09:46:30 13° 271° (W) 09:48:47 437.568
SO-50 21 Aug 09:46:13 09:50:06 28° 246° (WSW) 09:54:01 436.795
PCSat 21 Aug 09:47:24 09:52:05 30° 251° (WSW) 09:56:44 145.827
CUBEBUG 2 21 Aug 09:47:59 09:52:01 45° 287° (WNW) 09:56:06 437.445
Oscar 11 21 Aug 09:48:38 09:52:41 36° 97° (E) 09:56:41 .
HO-68 21 Aug 09:49:44 09:56:36 51° 293° (WNW) 10:03:27 435.675
Tancredo 1 21 Aug 09:53:35 09:56:25 49° 141° (SE) 09:59:15 437.200
O/OREOS (USA 219) 21 Aug 10:08:07 10:12:22 46° 107° (ESE) 10:16:40 437.305
Max Valier Satellite 21 Aug 10:16:34 10:17:46 11° 91° (E) 10:18:57 145.860
PRISM 21 Aug 10:18:30 10:22:17 34° 70° (ENE) 10:26:04 437.425
ZACube-1 21 Aug 10:18:46 10:23:01 67° 285° (WNW) 10:27:22 437.345
UNISAT 6 21 Aug 10:19:26 10:23:37 51° 73° (ENE) 10:27:47 437.425
SEEDS 21 Aug 10:21:47 10:24:39 18° 295° (WNW) 10:27:29 437.485
DELFI C3 21 Aug 10:32:37 10:35:57 25° 95° (E) 10:39:14 145.870
FO-29 21 Aug 10:37:22 10:44:52 58° 259° (W) 10:51:42 435.910
AO-73 21 Aug 10:39:54 10:43:59 44° 287° (WNW) 10:48:08 145.935
TIGRISAT 21 Aug 10:54:18 10:58:37 72° 259° (W) 11:02:54 435.000
AAUSAT CUBESAT 2 21 Aug 11:06:58 11:08:48 13° 297° (WNW) 11:10:37 437.432
RS-15 21 Aug 11:07:10 11:18:08 42° 107° (ESE) 11:29:13 29.354- 29.394
ISS 21 Aug 11:07:51 11:11:07 73° 143° (SE) 11:14:24 437.550
EO-88 21 Aug 11:07:53 11:11:20 37° 98° (E) 11:14:46 145.990 - 145.960
QB50P2 21 Aug 11:09:48 11:10:32 10° 61° (ENE) 11:11:16 145.880/145.840
M-CUBED/EXP-1 PRIME 21 Aug 11:11:02 11:14:58 30° 63° (ENE) 11:19:01 437.505
nSIGHT-1 21 Aug 11:15:43 11:18:59 89° 330° (NNW) 11:22:15 .
Oscar 11 21 Aug 11:25:17 11:28:34 21° 293° (WNW) 11:31:50 .
Tancredo 1 21 Aug 11:29:20 11:31:45 23° 338° (NNW) 11:34:10 437.200
DUCHIFAT 1 21 Aug 11:37:59 11:40:26 15° 64° (ENE) 11:42:53 145.980
HO-68 21 Aug 11:41:58 11:42:42 10° 313° (NW) 11:43:26 435.675
Max Valier Satellite 21 Aug 11:48:17 11:51:51 47° 286° (WNW) 11:55:25 145.860
O/OREOS (USA 219) 21 Aug 11:48:51 11:52:02 19° 305° (NW) 11:55:14 437.305
PRISM 21 Aug 11:54:35 11:57:38 20° 266° (W) 12:00:42 437.425
UNISAT 6 21 Aug 11:58:19 12:00:37 14° 269° (W) 12:02:54 437.425
DELFI C3 21 Aug 12:07:21 12:10:37 24° 291° (WNW) 12:13:51 145.870
AIST 2D 21 Aug 12:07:58 12:11:26 80° 258° (WSW) 12:14:57 435.315
NANOSAT C BR1 21 Aug 12:21:21 12:25:24 50° 73° (ENE) 12:29:28 145.865
POLYITAN 1 21 Aug 12:26:22 12:30:31 65° 74° (ENE) 12:34:40 437.675
ESTCUBE 1 21 Aug 12:29:04 12:33:07 31° 96° (E) 12:37:08 437.505/2401.250
LO-87 21 Aug 12:36:18 12:39:48 59° 101° (E) 12:43:17 145.935 - 145.965
QB50P2 21 Aug 12:41:29 12:45:41 76° 257° (WSW) 12:49:54 145.880/145.840
EO-79 21 Aug 12:42:00 12:46:13 83° 259° (W) 12:50:26 145.935-145.965
EO-88 21 Aug 12:42:35 12:44:41 15° 294° (WNW) 12:46:46 145.990 - 145.960
ISS 21 Aug 12:45:11 12:47:52 23° 341° (NNW) 12:50:34 437.550
M-CUBED/EXP-1 PRIME 21 Aug 12:45:17 12:49:16 31° 260° (W) 12:53:23 437.505
nSIGHT-1 21 Aug 12:53:10 12:55:44 21° 343° (NNW) 12:58:17 .
Gurwin Techsat 1B 21 Aug 12:57:51 13:00:06 13° 58° (ENE) 13:02:20 435.225
Tancredo 1 21 Aug 13:06:22 13:07:42 12° 358° (N) 13:09:03 437.200
BUGSAT 1 21 Aug 13:10:00 13:13:51 42° 72° (ENE) 13:17:42 437.445
DUCHIFAT 1 21 Aug 13:11:40 13:15:42 47° 260° (W) 13:19:45 145.980
Oscar 19 21 Aug 13:17:39 13:21:56 27° 66° (ENE) 13:26:15 437.125/150
RS-15 21 Aug 13:17:54 13:30:05 65° 309° (NW) 13:42:23 29.354- 29.394
BEESAT 3 21 Aug 13:28:56 13:31:33 17° 42° (NE) 13:34:09 437.485
AO-85 21 Aug 13:35:44 13:38:17 15° 41° (NE) 13:40:56 145.980
BEESAT 2 21 Aug 13:45:41 13:46:00 10° 36° (NE) 13:46:19 435.950
NANOSAT C BR1 21 Aug 13:59:16 14:01:24 14° 269° (W) 14:03:30 145.865
AO-7 21 Aug 14:00:21 14:05:27 18° 48° (NE) 14:10:33 .
POLYITAN 1 21 Aug 14:05:52 14:06:42 10° 270° (W) 14:07:32 437.675
ESTCUBE 1 21 Aug 14:06:01 14:09:47 26° 293° (WNW) 14:13:33 437.505/2401.250
VELOX 1 21 Aug 14:09:49 14:14:15 75° 102° (ESE) 14:18:38 145.980
DX 1 21 Aug 14:10:33 14:13:52 21° 94° (E) 14:17:09 434.975-435.025
SPROUT 21 Aug 14:13:40 14:17:55 76° 284° (WNW) 14:22:08 437.525
ISS 21 Aug 14:23:14 14:25:13 15° 1° (N) 14:27:13 437.550
nSIGHT-1 21 Aug 14:31:01 14:33:00 15° 4° (N) 14:35:00 .
Gurwin Techsat 1B 21 Aug 14:33:55 14:39:14 88° 78° (ENE) 14:44:36 435.225
ITAMSAT 1 21 Aug 14:40:54 14:43:05 13° 58° (ENE) 14:45:16 435.822/435.867
Tancredo 1 21 Aug 14:41:33 14:43:44 19° 18° (NNE) 14:45:55 437.200
BUGSAT 1 21 Aug 14:46:57 14:49:24 15° 267° (W) 14:51:50 437.445
50 SAT 21 Aug 14:52:13 14:55:35 81° 287° (WNW) 14:58:56 437.505
Oscar 19 21 Aug 14:56:20 15:01:05 38° 262° (W) 15:05:53 437.125/150
BEESAT 3 21 Aug 15:05:32 15:09:29 58° 241° (WSW) 15:13:20 437.485
AO-85 21 Aug 15:14:49 15:19:08 78° 239° (WSW) 15:23:48 145.980
YUBILEINY 21 Aug 15:17:13 15:22:55 19° 78° (ENE) 15:28:35 435.215
BEESAT 2 21 Aug 15:20:30 15:24:33 65° 55° (NE) 15:28:32 435.950
UKube-1 21 Aug 15:22:58 15:27:19 86° 107° (ESE) 15:31:36 .
RS-15 21 Aug 15:35:29 15:45:40 28° 339° (NNW) 15:55:45 29.354- 29.394
MOZHAYETS 4 21 Aug 15:45:27 15:47:56 14° 90° (E) 15:50:24
DX 1 21 Aug 15:46:09 15:50:07 35° 290° (WNW) 15:54:03 434.975-435.025
AO-7 21 Aug 15:48:30 15:56:49 73° 68° (ENE) 16:05:10 .
VELOX 1 21 Aug 15:48:31 15:50:03 12° 299° (WNW) 15:51:36 145.980
ISS 21 Aug 15:59:41 16:02:31 26° 21° (NNE) 16:05:20 437.550
BEESAT 21 Aug 16:05:52 16:09:54 27° 96° (E) 16:13:55 436.000
nSIGHT-1 21 Aug 16:07:14 16:10:09 29° 24° (NNE) 16:13:03 .
Tancredo 1 21 Aug 16:16:19 16:19:13 79° 213° (SSW) 16:22:05 437.200
ITAMSAT 1 21 Aug 16:16:34 16:21:47 90° 318° (NW) 16:27:01 435.822/435.867
Gurwin Techsat 1B 21 Aug 16:18:20 16:19:52 11° 272° (W) 16:21:24 435.225
ITUPSAT 1 21 Aug 16:40:10 16:44:54 59° 101° (E) 16:49:37 437.325
BEESAT 2 21 Aug 17:00:22 17:01:44 11° 252° (WSW) 17:03:05 435.950
YUBILEINY 21 Aug 17:09:42 17:18:31 86° 277° (W) 17:27:20 435.215
DOVE 4 21 Aug 17:12:52 17:17:14 27° 67° (ENE) 17:21:30 437.250
MOZHAYETS 4 21 Aug 17:20:54 17:25:27 58° 286° (WNW) 17:29:59
KKS-1 21 Aug 17:28:33 17:30:55 14° 91° (E) 17:33:17 437.445
ISS 21 Aug 17:35:57 17:39:09 52° 219° (SW) 17:42:19 437.550
CUBESAT XI-V 21 Aug 17:42:30 17:47:06 49° 99° (E) 17:51:38 437.345
BEESAT 21 Aug 17:43:26 17:47:40 33° 292° (WNW) 17:51:54 436.000
nSIGHT-1 21 Aug 17:43:31 17:46:36 41° 221° (SW) 17:49:39 .
XW-2B 21 Aug 17:43:42 17:45:22 13° 64° (ENE) 17:47:01 145.730 - 145.750
AO-7 21 Aug 17:43:43 17:50:15 25° 266° (W) 17:56:49 .
RS-15 21 Aug 17:53:55 18:03:42 26° 15° (NNE) 18:13:10 29.354- 29.394
ITAMSAT 1 21 Aug 18:00:57 18:01:55 10° 272° (W) 18:02:52 435.822/435.867
XW-2C 21 Aug 18:01:31 18:04:19 20° 68° (ENE) 18:07:09 145.795 - 145.815
STARS 21 Aug 18:05:02 18:07:22 14° 92° (E) 18:09:42 437.465
XW-2F 21 Aug 18:12:40 18:15:48 25° 69° (ENE) 18:18:55 145.980 - 146.000
ITUPSAT 1 21 Aug 18:19:17 18:22:14 17° 298° (WNW) 18:25:12 437.325
CUTE-I 21 Aug 18:30:50 18:35:56 47° 70° (ENE) 18:41:03 437.470
HO-68 21 Aug 18:32:15 18:37:51 26° 58° (ENE) 18:43:26 435.675
KAITUO 1B 21 Aug 18:36:08 18:39:35 38° 72° (ENE) 18:43:05 145.475/437.950
O/OREOS (USA 219) 21 Aug 18:40:09 18:41:58 12° 50° (NE) 18:43:47 437.305
DOVE 4 21 Aug 18:49:45 18:54:41 40° 263° (W) 18:59:33 437.250
CUTE 1.7 + AOD 2 21 Aug 18:52:07 18:54:43 16° 65° (ENE) 18:57:21 437.475
LilacSat-2 21 Aug 19:01:04 19:04:48 68° 259° (W) 19:08:37 437.200
KKS-1 21 Aug 19:03:28 19:07:47 54° 288° (WNW) 19:12:05 437.445
XW-2D 21 Aug 19:04:18 19:08:00 64° 259° (W) 19:11:46 145.860 - 145.880
NUDT-PHONESAT 21 Aug 19:07:26 19:11:06 84° 258° (WSW) 19:14:48 437.300
YUBILEINY 21 Aug 19:10:58 19:16:42 19° 299° (WNW) 19:22:26 435.215
CUBEBUG 2 21 Aug 19:11:51 19:14:02 14° 64° (ENE) 19:16:11 437.445
XW-2B 21 Aug 19:15:30 19:19:07 47° 261° (W) 19:22:47 145.730 - 145.750
CUBESAT XI-V 21 Aug 19:20:49 19:24:04 19° 296° (WNW) 19:27:20 437.345
XW-2C 21 Aug 19:35:08 19:38:21 27° 264° (W) 19:41:36 145.795 - 145.815
SEEDS 21 Aug 19:37:07 19:40:47 30° 69° (ENE) 19:44:29 437.485
STARS 21 Aug 19:39:46 19:44:01 52° 288° (WNW) 19:48:14 437.465
XW-2F 21 Aug 19:47:00 19:49:52 21° 266° (W) 19:52:47 145.980 - 146.000
XW-2A 21 Aug 19:56:50 19:59:54 36° 73° (ENE) 20:02:59 145.665 - 145.685
AO-73 21 Aug 20:01:39 20:03:38 13° 63° (ENE) 20:05:38 145.935
RS-15 21 Aug 20:07:50 20:19:45 56° 46° (NE) 20:31:00 29.354- 29.394
KAITUO 1B 21 Aug 20:11:49 20:13:45 14° 268° (W) 20:15:42 145.475/437.950
CUTE-I 21 Aug 20:12:02 20:16:11 23° 267° (W) 20:20:22 437.470
STRAND 1 21 Aug 20:12:24 20:16:32 24° 94° (E) 20:20:39 437.568
O/OREOS (USA 219) 21 Aug 20:17:27 20:22:01 85° 247° (WSW) 20:26:35 437.305
HO-68 21 Aug 20:17:52 20:24:59 67° 257° (WSW) 20:32:08 435.675
AAUSAT CUBESAT 2 21 Aug 20:19:47 20:23:40 40° 72° (ENE) 20:27:35 437.432
CUTE 1.7 + AOD 2 21 Aug 20:26:05 20:30:09 47° 261° (W) 20:34:17 437.475
UWE-3 21 Aug 20:36:51 20:41:00 67° 76° (ENE) 20:45:08 435.000/436.395/437.385
Oscar 11 21 Aug 20:43:43 20:47:26 29° 69° (ENE) 20:51:09 .
CUBEBUG 2 21 Aug 20:46:02 20:50:13 54° 260° (W) 20:54:21 437.445
SEEDS 21 Aug 21:13:06 21:16:27 23° 266° (W) 21:19:51 437.485
ZACube-1 21 Aug 21:14:35 21:18:43 85° 253° (WSW) 21:22:53 437.345
DELFI C3 21 Aug 21:18:52 21:21:23 16° 66° (ENE) 21:23:54 145.870
XW-2A 21 Aug 21:31:40 21:32:48 11° 268° (W) 21:33:56 145.665 - 145.685
AO-73 21 Aug 21:35:22 21:39:24 54° 260° (W) 21:43:29 145.935
EO-88 21 Aug 21:46:34 21:49:03 18° 67° (ENE) 21:51:33 145.990 - 145.960
FO-29 21 Aug 21:48:58 21:52:19 16° 89° (E) 21:55:33 435.910
STRAND 1 21 Aug 21:51:05 21:55:50 40° 291° (WNW) 22:00:33 437.568
AAUSAT CUBESAT 2 21 Aug 21:56:33 21:59:17 17° 268° (W) 22:02:02 437.432
HO-68 21 Aug 22:13:26 22:13:57 10° 275° (W) 22:14:27 435.675
Oscar 11 21 Aug 22:19:59 22:23:32 25° 265° (W) 22:27:07 .
RS-15 21 Aug 22:20:53 22:32:02 48° 251° (WSW) 22:42:39 29.354- 29.394
Max Valier Satellite 21 Aug 22:26:52 22:30:29 74° 76° (ENE) 22:34:08 145.860
TIGRISAT 21 Aug 22:45:41 22:49:03 22° 94° (E) 22:52:27 435.000
PCSat 21 Aug 22:45:57 22:50:44 33° 110° (ESE) 22:55:32 145.827
DELFI C3 21 Aug 22:52:02 22:55:49 41° 262° (W) 22:59:37 145.870
LO-87 21 Aug 23:12:47 23:15:45 25° 70° (ENE) 23:18:43 145.935 - 145.965
EO-88 21 Aug 23:19:18 23:22:29 29° 263° (W) 23:25:44 145.990 - 145.960
ESTCUBE 1 21 Aug 23:28:49 23:32:44 30° 68° (ENE) 23:36:40 437.505/2401.250
FO-29 21 Aug 23:32:32 23:38:01 59° 289° (WNW) 23:43:07 435.910
PRISM 21 Aug 23:34:06 23:38:09 52° 100° (E) 23:42:08 437.425
UNISAT 6 21 Aug 23:46:45 23:51:03 73° 286° (WNW) 23:55:26 437.425
SO-50 21 Aug 23:59:49 00:04:19 85° 125° (SE) 00:08:51 436.795
TIGRISAT 22 Aug 00:21:55 00:25:47 33° 290° (WNW) 00:29:42 435.000
M-CUBED/EXP-1 PRIME 22 Aug 00:24:14 00:27:12 18° 96° (E) 00:30:02 437.505
QB50P2 22 Aug 00:26:55 00:29:38 17° 92° (E) 00:32:20 145.880/145.840
EO-79 22 Aug 00:27:27 00:29:55 15° 92° (E) 00:32:23 145.935-145.965
PCSat 22 Aug 00:29:01 00:34:02 38° 308° (NW) 00:39:06 145.827
LO-87 22 Aug 00:46:26 00:49:08 20° 266° (W) 00:51:49 145.935 - 145.965
DUCHIFAT 1 22 Aug 00:55:25 00:58:51 24° 95° (E) 01:02:15 145.980
AIST 2D 22 Aug 01:05:31 01:09:04 67° 284° (WNW) 01:12:35 435.315
ESTCUBE 1 22 Aug 01:05:41 01:09:29 27° 265° (W) 01:13:20 437.505/2401.250
DX 1 22 Aug 01:06:30 01:09:43 20° 65° (ENE) 01:12:56 434.975-435.025
SPROUT 22 Aug 01:06:44 01:11:00 83° 77° (ENE) 01:15:17 437.525
VELOX 1 22 Aug 01:06:51 01:11:17 68° 74° (ENE) 01:15:43 145.980
PRISM 22 Aug 01:10:49 01:12:58 14° 297° (WNW) 01:15:06 437.425
50 SAT 22 Aug 01:23:15 01:26:20 33° 72° (ENE) 01:29:27 437.505
NANOSAT C BR1 22 Aug 01:40:28 01:44:41 89° 278° (W) 01:48:53 145.865
SO-50 22 Aug 01:42:41 01:45:23 15° 322° (NW) 01:48:05 436.795
POLYITAN 1 22 Aug 01:46:14 01:50:25 69° 285° (WNW) 01:54:36 437.675
M-CUBED/EXP-1 PRIME 22 Aug 01:57:43 02:01:49 40° 295° (WNW) 02:05:37 437.505
